Regional Weather Roundup
Issued by NWS

Home | Current Version | Previous Version | Graphics & Text | Print | Product List | Glossary On
Versions: 1 2 3 4 5 6 7 8 9 10 11 12 13 14 15 16 17 18 19 20 21 22 23 24 25 26 27 28 29 30 31 32 33 34 35 36 37 38 39 40 41 42 43 44 45 46 47 48 49 50
000
ASUS43 KIND 221709
RWRIN

WEATHER ROUNDUP FOR INDIANA
NATIONAL WEATHER SERVICE INDIANAPOLIS IN
100 PM EDT TUE JUL 22 2014

NOTE: "FAIR" INDICATES FEW OR NO CLOUDS BELOW 12,000 FEET WITH NO
SIGNIFICANT WEATHER AND/OR OBSTRUCTIONS TO VISIBILITY.

* - STATION DOES NOT REPORT WEATHER SUCH AS PRECIPITATION OR FOG.

+ - STATION NOT QUALITY CONTROLLED BY THE NATIONAL WEATHER SERVICE.
    USE DATA WITH CAUTION...ESPECIALLY DEWPOINT AND RELATIVE
    HUMIDITY OBSERVATIONS.

INZ001>003-010>013-019-020-221800-
NORTHWEST INDIANA

CITY           SKY/WX    TMP DP  RH WIND       PRES   REMARKS
KNOX *+        SUNNY     83  65  56 SW15      30.05R
LA PORTE +     SUNNY     82  66  59 SW16      30.07R
MICHIGAN CITY+ MOSUNNY   82  64  54 S12       30.05S
MONTICELLO +   SUNNY     82  69  66 SW13      30.06R
RENSSELAER +   MOSUNNY   81  72  74 SW10G16   30.06F
VALPARAISO     SUNNY     83  66  56 SW15G24   30.06R

$$

LMZ046-743>745-221800-
SOUTHERN LAKE MICHIGAN

STATION/POSITION TIME  TEMP WIND        PRES
                       AIR  DIR/SP/G
                 (UTC) (F)  (DEG/KT/KT) (MB)
BURNS HARBOR     1700   80  210/ 12/ 19 1017.3S
MICHIGAN CITY    1700   79  180/ 16/ 20   N/A

$$

INZ004-005-014>016-021>024-221800-
NORTH CENTRAL INDIANA

CITY           SKY/WX    TMP DP  RH WIND       PRES   REMARKS
ELKHART        SUNNY     82  64  54 SW9G18    30.06R
GOSHEN         SUNNY     85  66  53 SW16      30.05S
LOGANSPORT +   MOSUNNY   82  64  54 SW12      30.08S
PERU/GRISSOM   SUNNY     85  69  59 SW15      30.07F
ROCHESTER +    SUNNY     86  64  48 SW12G17   30.07R
SOUTH BEND     MOSUNNY   85  66  53 S13G23    30.05R
WARSAW +       SUNNY     82  66  57 W12       30.06S

$$

INZ006>009-017-018-025>027-221800-
NORTHEAST INDIANA

CITY           SKY/WX    TMP DP  RH WIND       PRES   REMARKS
ANGOLA *+      SUNNY     86  66  51 SW15      30.05F
AUBURN +       SUNNY     86  61  42 W10       30.06F
FORT WAYNE     MOSUNNY   86  66  51 SW15      30.07F
HUNTINGTON +   MOSUNNY   85  67  54 SW9       30.06F

$$

INZ028-029-035-036-043>045-051>053-221800-
WEST CENTRAL INDIANA

CITY           SKY/WX    TMP DP  RH WIND       PRES   REMARKS
GREENCASTLE +  SUNNY     82  68  61 CALM      30.10F
LAFAYETTE      SUNNY     82  67  60 S9        30.07S
TERRE HAUTE    SUNNY     85  69  58 SW9       30.08F

$$

INZ030>032-037>040-046>048-054>057-064-065-221800-
CENTRAL INDIANA

CITY           SKY/WX    TMP DP  RH WIND       PRES   REMARKS
ANDERSON       MOSUNNY   84  64  51 S8        30.10
CP ATTERBURY + MOSUNNY   86  64  48 SW8       30.10F
COLUMBUS       MOSUNNY   84  66  54 CALM      30.09F
INDIANAPOLIS   MOSUNNY   84  65  52 SW10      30.08F
-EAGLE CREEK   SUNNY     85  64  49 VRB7      30.08F
KOKOMO *+      SUNNY     84  68  58 SW12      30.07F
MARION +       MOSUNNY   83  65  54 SW9       30.09S
MT COMFORT *+  MOSUNNY   86  70  58 SW10      30.09F
SHELBYVILLE    MOSUNNY   87  66  49 SW10      30.09S
ZIONSVILLE +   MOSUNNY   85  64  48 SW8       30.10F

$$

INZ033-034-041-042-049-050-058-059-221800-
EAST CENTRAL INDIANA

CITY           SKY/WX    TMP DP  RH WIND       PRES   REMARKS
MUNCIE         MOSUNNY   85  63  47 S12       30.08F

$$

INZ060-061-067>069-081>083-085>088-221800-
SOUTHWEST INDIANA

CITY           SKY/WX    TMP DP  RH WIND       PRES   REMARKS
EVANSVILLE     SUNNY     87  67  51 CALM      30.09S
HUNTINGBURG *+ SUNNY     88  66  48 SW5         N/A
WASHINGTON +   SUNNY     85  71  61 W6        30.08F

$$

INZ062-063-066-070>080-084-089>092-221800-
SOUTH CENTRAL AND SOUTHEAST INDIANA

CITY           SKY/WX    TMP DP  RH WIND       PRES   REMARKS
BLOOMINGTON    MOSUNNY   85  66  53 VRB7      30.10F
SEYMOUR +      SUNNY     82  52  34 SW6       30.09F

$$



USA.gov is the U.S. government's official web portal to all federal, state and local government web resources and services.